Home > Weather > Jakobstad > Past weeks

Flag for Finland Past Weather in Jakobstad, Finland — Yesterday and Last 2 Weeks

Now
48 °F

Passing clouds.


Feels Like: 46 °F
Forecast: 45 / 55 °F
Wind: 6 mph from Northwest

Location: Kruunupyy

Current Time: May 25, 2016 at 10:16:54 AM

Latest Report: May 25, 2016 at 9:50 AM


Visibility: N/A

Pressure: 30.04 "Hg

Humidity: 94%

Dew Point: 46 °F

Location of JakobstadLocation

Past Weather in Jakobstad — Graph

°F

Jakobstad Temperature Yesterday

Maximum temperature yesterday: 66 °F (at 11:20 AM)
Minimum temperature yesterday: 50 °F (at 2:20 AM)
Average temperature yesterday: 55 °F

High & Low Weather Summary for the Past Weeks

 TemperatureHumidityPressure
High77 °F (May 23, 4:50 PM)100% (May 10, 4:50 PM)30.15 "Hg (May 10, 4:50 PM)
Low27 °F (May 12, 2:20 AM)15% (May 12, 4:50 PM)29.59 "Hg (May 14, 5:50 PM)
Average49 °F78%29.85 "Hg
* Reported May 10 9:20 AM — May 25 9:20 AM, Jakobstad, Weather by CustomWeather, © 2016

Note: Actual official high and low records may vary slightly from our data, if they occured in-between our weather recording intervals... More about our weather records

Advertising

Jakobstad Weather History for the Previous 24 Hours

Scroll right to see more
 ConditionsComfort  
Time TempWeatherWind HumidityBarometerVisibility
9:20 AM
Wed, May 25
48 °FBroken clouds.7 mph94%30.01 "HgN/A
8:50 AM50 °FBroken clouds.7 mph94%30.01 "HgN/A
8:20 AM50 °FBroken clouds.6 mph94%30.01 "HgN/A
7:50 AM50 °FPassing clouds.6 mph94%30.01 "HgN/A
7:20 AM50 °FSunny.3 mph94%30.01 "Hg10 mi
6:50 AM50 °FSunny.3 mph94%30.04 "Hg10 mi
6:20 AM50 °FPassing clouds.5 mph94%30.01 "HgN/A
5:50 AM48 °FOvercast.3 mph100%30.01 "HgN/A
5:20 AM48 °FFog.2 mph100%30.04 "Hg3 mi
4:50 AM48 °FFog.3 mph100%30.01 "Hg3 mi
4:20 AM48 °FPartly cloudy.5 mph100%30.04 "Hg3 mi
3:50 AM48 °FMostly cloudy.5 mph100%30.04 "Hg3 mi
3:20 AM48 °FMostly cloudy.5 mph100%30.04 "Hg4 mi
2:50 AM50 °FLow clouds.3 mph94%30.04 "HgN/A
2:20 AM50 °FSprinkles. Mostly cloudy.3 mph100%30.04 "HgN/A
1:50 AM50 °FLight rain. Mostly cloudy.2 mph100%30.01 "Hg4 mi
1:20 AM50 °FMostly cloudy.2 mph100%30.04 "Hg4 mi
12:50 AM50 °FFog.3 mph100%30.04 "Hg1 mi
12:20 AM50 °FFog.6 mph100%30.04 "Hg1 mi
11:50 PM
Tue, May 24
50 °FMostly cloudy.3 mph94%30.04 "HgN/A
11:20 PM50 °FMostly cloudy.3 mph94%30.04 "HgN/A
10:50 PM50 °FPartly sunny.3 mph94%30.04 "HgN/A
10:20 PM52 °FBroken clouds.5 mph88%30.04 "HgN/A
9:50 PM52 °FBroken clouds.3 mph88%30.04 "HgN/A
9:20 PM52 °FBroken clouds.5 mph94%30.04 "HgN/A
8:50 PM52 °FBroken clouds.6 mph94%30.01 "HgN/A
8:20 PM54 °FPartly sunny.7 mph88%30.01 "HgN/A
7:50 PM54 °FMostly cloudy.7 mph88%30.01 "HgN/A
7:20 PM54 °FBroken clouds.8 mph88%30.01 "HgN/A
6:50 PM54 °FMostly cloudy.7 mph88%30.01 "HgN/A
6:20 PM54 °FPartly sunny.8 mph88%30.01 "HgN/A
5:50 PM52 °FLow clouds.6 mph94%30.01 "HgN/A
5:20 PM52 °FLow clouds.8 mph94%30.01 "HgN/A
4:50 PM52 °FLow clouds.8 mph94%30.01 "HgN/A
4:20 PM52 °FPartly sunny.7 mph94%30.01 "HgN/A
3:50 PM52 °FRain showers. Broken clouds.7 mph94%30.01 "HgN/A
3:20 PM52 °FRain showers. Broken clouds.7 mph94%30.01 "HgN/A
2:50 PM52 °FRain showers. Overcast.9 mph94%30.04 "HgN/A
2:20 PM55 °FRain showers. Overcast.7 mph82%30.01 "HgN/A
1:50 PM57 °FPartly sunny.8 mph72%30.01 "HgN/A
1:20 PM59 °FPartly sunny.10 mph68%30.01 "HgN/A
12:50 PM61 °FSunny.9 mph63%30.01 "Hg10 mi
12:20 PM61 °FPassing clouds.12 mph68%30.01 "HgN/A
11:50 AM63 °FPassing clouds.10 mph64%30.01 "HgN/A
11:20 AM66 °FPassing clouds.6 mph60%29.98 "HgN/A
10:50 AM64 °FPassing clouds.7 mph60%29.98 "HgN/A
10:20 AM64 °FPassing clouds.7 mph64%29.98 "HgN/A
Weather by CustomWeather, © 2016

See weather overviewHow to use our weather pages